Location: Bühlhof
(48.7849°N, 8.6361°E)
Time: 22:29:21
(UTC+00:00)

NOSS 2-1 (C) - Pass Details

Date: 19 January 2026
Orbit: 375 x 1684 km, 63.3° (Epoch: 7 February)

Event Time Altitude Azimuth Distance (km) Brightness Sun altitude
Rises 16:36:15 0° 326° (NW) 2,287 6.6 -5.7°
Reaches altitude 10° 16:38:26 10° 343° (NNW) 1,493 5.5 -6.1°
Maximum altitude 16:41:03 22° 38° (NE) 1,044 4.3 -6.5°
Drops below altitude 10° 16:44:08 10° 91° (E) 1,782 5.4 -6.9°
Enters shadow 16:45:44 - 101° (E) 2,375 6.1 -7.2°
